Location: Pian di Sc�
(43.6333°N, 11.5500°E)
Time: 10:17:35
(UTC+00:00)

Cosmos 2112 Rocket - Pass Details

Date: 07 August 2020
Orbit: 757 x 786 km, 74.0° (Epoch: 18 September)

Event Time Altitude Azimuth Distance (km) Brightness Sun altitude
Rises 01:54:09 0° 339° (NNW) 3,243 7.6 -20.4°
Reaches altitude 10° 01:56:33 10° 339° (NNW) 2,309 6.8 -20.1°
Maximum altitude 02:01:48 87° 250° (WSW) 767 3.9 -19.5°
Enters shadow 02:06:31 13° 162° (SSE) 2,101 6.0 -18.9°
